Time,TemperatureF,DewpointF,PressureIn,WindDirection,WindDirectionDegrees,WindSpeedMPH,WindSpeedGustMPH,Humidity,HourlyPrecipIn,Conditions,Clouds,dailyrainin,SoftwareType,DateUTC
2013-04-07 00:08:00,55.4,43.0,30.20,ESE,109,0.0,6.0,64,0.00,,,0.00,weatherlink.com 1.10,2013-04-07 04:08:00,
2013-04-07 00:23:00,55.0,43.0,30.20,ENE,64,2.0,5.0,64,0.00,,,0.00,weatherlink.com 1.10,2013-04-07 04:23:00,
2013-04-07 00:38:00,54.6,42.0,30.21,SE,131,0.0,5.0,63,0.00,,,0.00,weatherlink.com 1.10,2013-04-07 04:38:00,
2013-04-07 00:53:00,54.1,41.0,30.21,SE,135,3.0,6.0,62,0.00,,,0.00,weatherlink.com 1.10,2013-04-07 04:53:00,
2013-04-07 01:08:00,53.7,39.0,30.21,SE,124,2.0,5.0,59,0.00,,,0.00,weatherlink.com 1.10,2013-04-07 05:08:00,
2013-04-07 01:23:00,53.2,38.0,30.21,SE,126,2.0,9.0,56,0.00,,,0.00,weatherlink.com 1.10,2013-04-07 05:23:00,
2013-04-07 01:38:00,52.7,36.0,30.20,SE,129,3.0,6.0,53,0.00,,,0.00,weatherlink.com 1.10,2013-04-07 05:38:00,
2013-04-07 01:53:00,52.1,36.0,30.20,ESE,117,2.0,5.0,55,0.00,,,0.00,weatherlink.com 1.10,2013-04-07 05:53:00,
2013-04-07 04:40:00,45.6,37.0,30.18,SE,128,0.0,0.0,73,0.00,,,0.00,weatherlink.com 1.10,2013-04-07 08:40:00,
2013-04-07 04:54:00,44.2,37.0,30.19,SE,128,0.0,0.0,76,0.00,,,0.00,weatherlink.com 1.10,2013-04-07 08:54:00,
2013-04-07 05:09:00,43.0,37.0,30.19,SE,128,0.0,0.0,79,0.00,,,0.00,weatherlink.com 1.10,2013-04-07 09:09:00,
2013-04-07 05:24:00,42.3,37.0,30.19,SE,128,0.0,0.0,81,0.00,,,0.00,weatherlink.com 1.10,2013-04-07 09:24:00,
2013-04-07 05:39:00,41.6,37.0,30.19,SE,128,0.0,0.0,83,0.00,,,0.00,weatherlink.com 1.10,2013-04-07 09:39:00,
2013-04-07 05:54:00,40.8,37.0,30.20,SE,128,0.0,0.0,85,0.00,,,0.00,weatherlink.com 1.10,2013-04-07 09:54:00,
2013-04-07 06:09:00,40.5,37.0,30.20,SE,128,0.0,0.0,87,0.00,,,0.00,weatherlink.com 1.10,2013-04-07 10:09:00,
2013-04-07 06:24:00,40.2,37.0,30.20,SE,128,0.0,0.0,88,0.00,,,0.00,weatherlink.com 1.10,2013-04-07 10:24:00,
2013-04-07 06:54:00,40.0,37.0,30.22,SE,128,0.0,0.0,90,0.00,,,0.00,weatherlink.com 1.10,2013-04-07 10:54:00,
2013-04-07 07:09:00,39.6,37.0,30.22,SE,128,0.0,0.0,91,0.00,,,0.00,weatherlink.com 1.10,2013-04-07 11:09:00,
2013-04-07 07:24:00,39.4,37.0,30.23,SE,128,0.0,0.0,92,0.00,,,0.00,weatherlink.com 1.10,2013-04-07 11:24:00,
2013-04-07 07:40:00,39.6,38.0,30.23,SE,128,0.0,0.0,92,0.00,,,0.00,weatherlink.com 1.10,2013-04-07 11:40:00,
2013-04-07 07:55:00,40.3,39.0,30.24,SE,128,0.0,0.0,93,0.00,,,0.00,weatherlink.com 1.10,2013-04-07 11:55:00,
2013-04-07 08:10:00,41.3,40.0,30.24,SE,128,0.0,0.0,93,0.00,,,0.00,weatherlink.com 1.10,2013-04-07 12:10:00,
2013-04-07 08:40:00,46.1,42.0,30.25,SE,128,0.0,2.0,85,0.00,,,0.00,weatherlink.com 1.10,2013-04-07 12:40:00,
2013-04-07 08:55:00,48.5,43.0,30.26,SE,128,0.0,2.0,80,0.00,,,0.00,weatherlink.com 1.10,2013-04-07 12:55:00,
2013-04-07 09:10:00,49.8,43.0,30.25,SW,217,0.0,3.0,77,0.00,,,0.00,weatherlink.com 1.10,2013-04-07 13:10:00,
2013-04-07 09:25:00,50.9,44.0,30.25,ESE,105,0.0,4.0,77,0.00,,,0.00,weatherlink.com 1.10,2013-04-07 13:25:00,
2013-04-07 09:55:00,52.8,45.0,30.24,ENE,65,2.0,3.0,75,0.00,,,0.00,weatherlink.com 1.10,2013-04-07 13:55:00,
2013-04-07 10:10:00,53.9,46.0,30.24,ESE,123,2.0,5.0,74,0.00,,,0.00,weatherlink.com 1.10,2013-04-07 14:10:00,
2013-04-07 10:25:00,54.5,46.0,30.25,NE,40,0.0,4.0,73,0.00,,,0.00,weatherlink.com 1.10,2013-04-07 14:25:00,
2013-04-07 10:40:00,55.7,46.0,30.25,SE,126,0.0,5.0,70,0.00,,,0.00,weatherlink.com 1.10,2013-04-07 14:40:00,
2013-04-07 10:55:00,57.0,47.0,30.24,East,87,1.0,4.0,69,0.00,,,0.00,weatherlink.com 1.10,2013-04-07 14:55:00,
2013-04-07 11:10:00,59.0,48.0,30.24,SE,128,3.0,4.0,66,0.00,,,0.00,weatherlink.com 1.10,2013-04-07 15:10:00,
2013-04-07 11:25:00,60.2,48.0,30.24,East,95,2.0,4.0,65,0.00,,,0.00,weatherlink.com 1.10,2013-04-07 15:25:00,
2013-04-07 11:40:00,61.7,49.0,30.23,ENE,78,2.0,7.0,63,0.00,,,0.00,weatherlink.com 1.10,2013-04-07 15:40:00,
2013-04-07 11:55:00,62.7,49.0,30.23,SW,227,2.0,5.0,62,0.00,,,0.00,weatherlink.com 1.10,2013-04-07 15:55:00,
2013-04-07 12:10:00,63.7,48.0,30.23,South,178,1.0,6.0,56,0.00,,,0.00,weatherlink.com 1.10,2013-04-07 16:10:00,
2013-04-07 12:25:00,65.1,48.0,30.22,ESE,123,4.0,8.0,55,0.00,,,0.00,weatherlink.com 1.10,2013-04-07 16:25:00,
2013-04-07 12:40:00,66.4,48.0,30.21,SSW,198,1.0,6.0,52,0.00,,,0.00,weatherlink.com 1.10,2013-04-07 16:40:00,
2013-04-07 12:55:00,67.2,47.0,30.21,SE,141,2.0,6.0,48,0.00,,,0.00,weatherlink.com 1.10,2013-04-07 16:55:00,
2013-04-07 13:10:00,66.8,45.0,30.20,WNW,290,1.0,8.0,46,0.00,,,0.00,weatherlink.com 1.10,2013-04-07 17:10:00,
2013-04-07 13:26:00,68.1,46.0,30.19,SSW,192,1.0,7.0,46,0.00,,,0.00,weatherlink.com 1.10,2013-04-07 17:26:00,
2013-04-07 13:41:00,69.3,47.0,30.18,SW,229,4.0,9.0,45,0.00,,,0.00,weatherlink.com 1.10,2013-04-07 17:41:00,
2013-04-07 13:56:00,69.4,46.0,30.17,ESE,120,0.0,8.0,44,0.00,,,0.00,weatherlink.com 1.10,2013-04-07 17:56:00,
2013-04-07 14:11:00,69.8,47.0,30.16,SE,124,2.0,12.0,45,0.00,,,0.00,weatherlink.com 1.10,2013-04-07 18:11:00,
2013-04-07 14:26:00,71.0,48.0,30.15,SE,134,8.0,9.0,44,0.00,,,0.00,weatherlink.com 1.10,2013-04-07 18:26:00,
2013-04-07 14:56:00,70.5,50.0,30.14,NNW,333,2.0,7.0,49,0.00,,,0.00,weatherlink.com 1.10,2013-04-07 18:56:00,
2013-04-07 15:11:00,70.7,50.0,30.13,SSW,199,4.0,5.0,49,0.00,,,0.00,weatherlink.com 1.10,2013-04-07 19:11:00,
2013-04-07 15:26:00,71.5,52.0,30.13,SSE,147,5.0,8.0,50,0.00,,,0.00,weatherlink.com 1.10,2013-04-07 19:26:00,
2013-04-07 16:11:00,71.5,48.0,30.11,ESE,117,2.0,9.0,44,0.00,,,0.00,weatherlink.com 1.10,2013-04-07 20:11:00,
2013-04-07 16:26:00,72.1,49.0,30.10,SE,139,5.0,7.0,44,0.00,,,0.00,weatherlink.com 1.10,2013-04-07 20:26:00,
2013-04-07 16:41:00,72.3,49.0,30.10,SW,228,1.0,7.0,44,0.00,,,0.00,weatherlink.com 1.10,2013-04-07 20:41:00,
2013-04-07 16:56:00,72.5,52.0,30.09,WSW,237,2.0,8.0,48,0.00,,,0.00,weatherlink.com 1.10,2013-04-07 20:56:00,
2013-04-07 17:26:00,71.5,51.0,30.09,WSW,238,6.0,7.0,48,0.00,,,0.00,weatherlink.com 1.10,2013-04-07 21:26:00,
2013-04-07 17:41:00,71.9,52.0,30.09,SW,224,1.0,5.0,49,0.00,,,0.00,weatherlink.com 1.10,2013-04-07 21:41:00,
2013-04-07 18:11:00,70.9,52.0,30.09,SSW,192,0.0,5.0,52,0.00,,,0.00,weatherlink.com 1.10,2013-04-07 22:11:00,
2013-04-07 18:26:00,71.0,51.0,30.09,SSE,150,0.0,5.0,50,0.00,,,0.00,weatherlink.com 1.10,2013-04-07 22:26:00,
2013-04-07 18:56:00,70.5,52.0,30.09,SW,218,1.0,4.0,52,0.00,,,0.00,weatherlink.com 1.10,2013-04-07 22:56:00,
2013-04-07 19:11:00,69.8,52.0,30.09,SE,139,0.0,3.0,53,0.00,,,0.00,weatherlink.com 1.10,2013-04-07 23:11:00,
2013-04-07 19:26:00,69.0,52.0,30.09,SE,140,0.0,2.0,55,0.00,,,0.00,weatherlink.com 1.10,2013-04-07 23:26:00,
2013-04-07 19:41:00,67.8,53.0,30.10,SE,140,0.0,0.0,60,0.00,,,0.00,weatherlink.com 1.10,2013-04-07 23:41:00,
2013-04-07 19:56:00,66.1,53.0,30.10,SE,143,0.0,0.0,64,0.00,,,0.00,weatherlink.com 1.10,2013-04-07 23:56:00,
2013-04-07 20:11:00,64.5,52.0,30.10,SE,143,0.0,0.0,65,0.00,,,0.00,weatherlink.com 1.10,2013-04-08 00:11:00,
2013-04-07 20:41:00,60.9,52.0,30.10,SE,143,0.0,0.0,73,0.00,,,0.00,weatherlink.com 1.10,2013-04-08 00:41:00,
2013-04-07 20:56:00,59.7,52.0,30.10,SE,143,0.0,0.0,76,0.00,,,0.00,weatherlink.com 1.10,2013-04-08 00:56:00,
2013-04-07 21:11:00,58.8,52.0,30.11,SE,143,0.0,0.0,78,0.00,,,0.00,weatherlink.com 1.10,2013-04-08 01:11:00,
2013-04-07 21:26:00,58.0,52.0,30.11,SE,143,0.0,0.0,80,0.00,,,0.00,weatherlink.com 1.10,2013-04-08 01:26:00,
2013-04-07 21:41:00,57.0,52.0,30.12,SE,143,0.0,0.0,82,0.00,,,0.00,weatherlink.com 1.10,2013-04-08 01:41:00,
2013-04-07 22:56:00,54.9,51.0,30.11,SE,143,0.0,0.0,86,0.00,,,0.00,weatherlink.com 1.10,2013-04-08 02:56:00,
2013-04-07 23:11:00,55.0,51.0,30.11,SE,143,0.0,0.0,86,0.00,,,0.00,weatherlink.com 1.10,2013-04-08 03:11:00,
2013-04-07 23:26:00,55.9,52.0,30.11,SE,143,0.0,1.0,85,0.00,,,0.00,weatherlink.com 1.10,2013-04-08 03:26:00,